Time,TemperatureF,DewpointF,PressureIn,WindDirection,WindDirectionDegrees,WindSpeedMPH,WindSpeedGustMPH,Humidity,HourlyPrecipIn,Conditions,Clouds,dailyrainin,SolarRadiationWatts/m^2,SoftwareType,DateUTC
2014-03-10 00:01:00,37.4,27.8,29.94,WSW,255,10.7,15.0,68,0.00,CLR,,0.00,0.0,WeatherDisplay:10.37,2014-03-10 04:01:00,
2014-03-10 00:06:00,37.4,27.8,29.93,WSW,240,5.3,9.2,68,0.00,CLR,,0.00,0.0,WeatherDisplay:10.37,2014-03-10 04:06:00,
2014-03-10 00:11:00,37.5,27.9,29.93,SSW,210,6.1,10.4,68,0.00,CLR,,0.00,0.0,WeatherDisplay:10.37,2014-03-10 04:11:00,
2014-03-10 00:16:00,37.5,27.9,29.93,SW,231,4.7,6.9,68,0.00,CLR,,0.00,0.0,WeatherDisplay:10.37,2014-03-10 04:16:00,
2014-03-10 00:21:00,37.5,27.9,29.93,SW,223,6.0,11.5,68,0.00,CLR,,0.00,0.0,WeatherDisplay:10.37,2014-03-10 04:21:00,
2014-03-10 00:26:00,37.5,27.5,29.92,SSW,208,10.3,11.5,67,0.00,CLR,,0.00,0.0,WeatherDisplay:10.37,2014-03-10 04:26:00,
2014-03-10 00:31:00,37.5,27.5,29.92,WSW,238,7.6,13.8,67,0.00,CLR,,0.00,0.0,WeatherDisplay:10.37,2014-03-10 04:31:00,
2014-03-10 00:36:00,37.5,27.5,29.92,SW,225,8.7,10.4,67,0.00,CLR,,0.00,0.0,WeatherDisplay:10.37,2014-03-10 04:36:00,
2014-03-10 00:41:00,37.6,27.6,29.91,SW,223,5.2,11.5,67,0.00,CLR,,0.00,0.0,WeatherDisplay:10.37,2014-03-10 04:41:00,
2014-03-10 00:46:00,37.6,28.0,29.91,WSW,251,8.3,10.4,68,0.00,CLR,,0.00,0.0,WeatherDisplay:10.37,2014-03-10 04:46:00,
2014-03-10 00:51:00,37.6,27.6,29.91,SW,223,7.4,17.3,67,0.00,CLR,,0.00,0.0,WeatherDisplay:10.37,2014-03-10 04:51:00,
2014-03-10 00:56:00,37.7,27.7,29.90,SSW,213,7.3,11.5,67,0.00,CLR,,0.00,0.0,WeatherDisplay:10.37,2014-03-10 04:56:00,
2014-03-10 01:01:00,37.8,27.8,29.91,SW,222,7.8,11.5,67,0.00,CLR,,0.00,0.0,WeatherDisplay:10.37,2014-03-10 05:01:00,
2014-03-10 01:06:00,37.9,27.9,29.91,WSW,243,8.2,11.5,67,0.00,CLR,,0.00,0.0,WeatherDisplay:10.37,2014-03-10 05:06:00,
2014-03-10 01:11:00,37.9,27.9,29.91,SSW,211,6.7,10.4,67,0.00,CLR,,0.00,0.0,WeatherDisplay:10.37,2014-03-10 05:11:00,
2014-03-10 01:16:00,38.1,28.1,29.90,SW,234,7.9,17.3,67,0.00,CLR,,0.00,0.0,WeatherDisplay:10.37,2014-03-10 05:16:00,
2014-03-10 01:21:00,38.2,27.8,29.90,SW,220,8.5,12.0,66,0.00,CLR,,0.00,0.0,WeatherDisplay:10.37,2014-03-10 05:21:00,
2014-03-10 01:26:00,38.2,27.8,29.89,SSW,212,7.2,12.7,66,0.00,CLR,,0.00,0.0,WeatherDisplay:10.37,2014-03-10 05:26:00,
2014-03-10 01:31:00,38.3,27.9,29.89,WSW,242,6.3,12.7,66,0.00,CLR,,0.00,0.0,WeatherDisplay:10.37,2014-03-10 05:31:00,
2014-03-10 01:36:00,38.4,28.0,29.89,WNW,285,4.8,9.0,66,0.00,CLR,,0.00,0.0,WeatherDisplay:10.37,2014-03-10 05:36:00,
2014-03-10 01:41:00,38.5,28.1,29.89,SW,217,7.5,12.7,66,0.00,CLR,,0.00,0.0,WeatherDisplay:10.37,2014-03-10 05:41:00,
2014-03-10 01:46:00,38.5,28.1,29.89,SW,223,7.1,11.5,66,0.00,CLR,,0.00,0.0,WeatherDisplay:10.37,2014-03-10 05:46:00,
2014-03-10 01:51:00,38.6,27.8,29.88,WSW,249,5.5,11.5,65,0.00,CLR,,0.00,0.0,WeatherDisplay:10.37,2014-03-10 05:51:00,
2014-03-10 01:56:00,38.6,27.8,29.88,SSW,202,7.2,11.5,65,0.00,CLR,,0.00,0.0,WeatherDisplay:10.37,2014-03-10 05:56:00,
2014-03-10 02:01:00,38.7,27.9,29.89,WSW,238,5.7,8.1,65,0.00,CLR,,0.00,0.0,WeatherDisplay:10.37,2014-03-10 06:01:00,
2014-03-10 02:06:00,38.8,28.0,29.90,SW,235,8.1,9.2,65,0.00,CLR,,0.00,0.0,WeatherDisplay:10.37,2014-03-10 06:06:00,
2014-03-10 02:11:00,39.0,28.2,29.90,SW,235,6.8,9.2,65,0.00,CLR,,0.00,0.0,WeatherDisplay:10.37,2014-03-10 06:11:00,
2014-03-10 02:17:00,39.1,28.3,29.90,SW,223,4.9,7.0,65,0.00,CLR,,0.00,0.0,WeatherDisplay:10.37,2014-03-10 06:17:00,
2014-03-10 02:22:00,39.1,27.9,29.90,WSW,246,6.4,10.4,64,0.00,CLR,,0.00,0.0,WeatherDisplay:10.37,2014-03-10 06:22:00,
2014-03-10 02:27:00,39.2,28.0,29.91,WSW,250,10.8,16.1,64,0.00,CLR,,0.00,0.0,WeatherDisplay:10.37,2014-03-10 06:27:00,
2014-03-10 02:32:00,39.3,28.1,29.90,WSW,239,6.6,12.7,64,0.00,CLR,,0.00,0.0,WeatherDisplay:10.37,2014-03-10 06:32:00,
2014-03-10 02:37:00,39.5,28.3,29.90,WSW,245,6.6,16.0,64,0.00,CLR,,0.00,0.0,WeatherDisplay:10.37,2014-03-10 06:37:00,
2014-03-10 02:42:00,39.6,28.4,29.90,SW,221,4.8,13.8,64,0.00,CLR,,0.00,0.0,WeatherDisplay:10.37,2014-03-10 06:42:00,
2014-03-10 02:47:00,39.7,28.1,29.90,West,269,7.8,11.5,63,0.00,CLR,,0.00,0.0,WeatherDisplay:10.37,2014-03-10 06:47:00,
2014-03-10 02:52:00,39.8,28.2,29.90,WSW,250,8.9,15.0,63,0.00,CLR,,0.00,0.0,WeatherDisplay:10.37,2014-03-10 06:52:00,
2014-03-10 02:57:00,39.9,28.3,29.89,WSW,253,8.6,11.5,63,0.00,CLR,,0.00,0.0,WeatherDisplay:10.37,2014-03-10 06:57:00,
2014-03-10 03:02:00,39.9,28.3,29.89,WSW,245,7.4,15.0,63,0.00,CLR,,0.00,0.0,WeatherDisplay:10.37,2014-03-10 07:02:00,
2014-03-10 03:07:00,40.0,28.4,29.89,WSW,246,7.1,11.5,63,0.00,CLR,,0.00,0.0,WeatherDisplay:10.37,2014-03-10 07:07:00,
2014-03-10 03:12:00,40.0,28.4,29.89,WSW,244,8.2,13.0,63,0.00,CLR,,0.00,0.0,WeatherDisplay:10.37,2014-03-10 07:12:00,
2014-03-10 03:17:00,40.0,28.4,29.89,WSW,257,11.9,17.3,63,0.00,CLR,,0.00,0.0,WeatherDisplay:10.37,2014-03-10 07:17:00,
2014-03-10 03:22:00,40.1,28.9,29.88,WNW,283,9.3,15.0,64,0.00,CLR,,0.00,0.0,WeatherDisplay:10.37,2014-03-10 07:22:00,
2014-03-10 03:27:00,40.1,28.9,29.88,WSW,245,7.8,11.0,64,0.00,CLR,,0.00,0.0,WeatherDisplay:10.37,2014-03-10 07:27:00,
2014-03-10 03:32:00,40.1,28.9,29.88,WSW,242,7.0,10.4,64,0.00,CLR,,0.00,0.0,WeatherDisplay:10.37,2014-03-10 07:32:00,
2014-03-10 03:37:00,40.1,28.9,29.88,SW,230,7.9,11.5,64,0.00,CLR,,0.00,0.0,WeatherDisplay:10.37,2014-03-10 07:37:00,
2014-03-10 03:42:00,40.1,29.3,29.87,WSW,248,9.3,11.5,65,0.00,CLR,,0.00,0.0,WeatherDisplay:10.37,2014-03-10 07:42:00,
2014-03-10 03:47:00,40.1,29.3,29.88,SSW,192,9.1,16.1,65,0.00,CLR,,0.00,0.0,WeatherDisplay:10.37,2014-03-10 07:47:00,
2014-03-10 03:52:00,40.1,29.3,29.87,WSW,257,6.2,9.2,65,0.00,CLR,,0.00,0.0,WeatherDisplay:10.37,2014-03-10 07:52:00,
2014-03-10 03:57:00,40.1,29.3,29.87,SW,229,6.9,11.5,65,0.00,CLR,,0.00,0.0,WeatherDisplay:10.37,2014-03-10 07:57:00,
2014-03-10 04:02:00,40.1,29.3,29.86,West,263,8.7,11.5,65,0.00,CLR,,0.00,0.0,WeatherDisplay:10.37,2014-03-10 08:02:00,
2014-03-10 04:07:00,40.1,29.3,29.86,SW,232,3.7,6.0,65,0.00,CLR,,0.00,0.0,WeatherDisplay:10.37,2014-03-10 08:07:00,
2014-03-10 04:12:00,40.1,29.3,29.86,WSW,255,6.3,8.1,65,0.00,CLR,,0.00,0.0,WeatherDisplay:10.37,2014-03-10 08:12:00,
2014-03-10 04:17:00,40.0,29.2,29.86,SW,232,8.9,15.0,65,0.00,CLR,,0.00,0.0,WeatherDisplay:10.37,2014-03-10 08:17:00,
2014-03-10 04:22:00,40.1,29.3,29.86,SW,220,10.7,13.8,65,0.00,CLR,,0.00,0.0,WeatherDisplay:10.37,2014-03-10 08:22:00,
2014-03-10 04:27:00,40.1,29.6,29.86,West,265,6.5,11.5,66,0.00,CLR,,0.00,0.0,WeatherDisplay:10.37,2014-03-10 08:27:00,
2014-03-10 04:32:00,40.0,29.6,29.85,WSW,238,6.4,9.2,66,0.00,CLR,,0.00,0.0,WeatherDisplay:10.37,2014-03-10 08:32:00,
2014-03-10 04:37:00,40.1,29.6,29.85,WSW,246,5.6,13.8,66,0.00,CLR,,0.00,0.0,WeatherDisplay:10.37,2014-03-10 08:37:00,
2014-03-10 04:42:00,40.1,29.6,29.84,WSW,257,6.8,12.7,66,0.00,CLR,,0.00,0.0,WeatherDisplay:10.37,2014-03-10 08:42:00,
2014-03-10 04:47:00,40.1,29.6,29.85,WSW,246,6.9,11.5,66,0.00,CLR,,0.00,0.0,WeatherDisplay:10.37,2014-03-10 08:47:00,
2014-03-10 04:52:00,40.0,29.6,29.84,SSW,209,5.6,11.5,66,0.00,CLR,,0.00,0.0,WeatherDisplay:10.37,2014-03-10 08:52:00,
2014-03-10 04:57:00,40.0,29.6,29.84,WSW,238,4.7,13.8,66,0.00,CLR,,0.00,0.0,WeatherDisplay:10.37,2014-03-10 08:57:00,
2014-03-10 05:02:00,39.9,29.8,29.84,SW,229,8.9,11.5,67,0.00,CLR,,0.00,0.0,WeatherDisplay:10.37,2014-03-10 09:02:00,
2014-03-10 05:07:00,39.8,29.7,29.84,WSW,245,4.9,6.9,67,0.00,CLR,,0.00,0.0,WeatherDisplay:10.37,2014-03-10 09:07:00,
2014-03-10 05:12:00,39.8,29.7,29.84,WSW,250,8.9,13.0,67,0.00,CLR,,0.00,0.0,WeatherDisplay:10.37,2014-03-10 09:12:00,
2014-03-10 05:17:00,39.8,30.1,29.83,WSW,244,6.7,10.0,68,0.00,CLR,,0.00,0.0,WeatherDisplay:10.37,2014-03-10 09:17:00,
2014-03-10 05:22:00,39.9,30.2,29.83,WSW,239,6.6,11.5,68,0.00,CLR,,0.00,0.0,WeatherDisplay:10.37,2014-03-10 09:22:00,
2014-03-10 05:27:00,40.0,30.3,29.83,SW,226,9.3,11.5,68,0.00,CLR,,0.00,0.0,WeatherDisplay:10.37,2014-03-10 09:27:00,
2014-03-10 05:32:00,40.0,30.3,29.83,West,260,9.8,12.7,68,0.00,CLR,,0.00,0.0,WeatherDisplay:10.37,2014-03-10 09:32:00,
2014-03-10 05:37:00,40.0,30.3,29.83,WSW,237,6.9,9.2,68,0.00,CLR,,0.00,0.0,WeatherDisplay:10.37,2014-03-10 09:37:00,
2014-03-10 05:42:00,40.0,30.3,29.83,WSW,252,5.8,9.2,68,0.00,CLR,,0.00,0.0,WeatherDisplay:10.37,2014-03-10 09:42:00,
2014-03-10 05:47:00,40.0,30.3,29.83,WSW,241,4.5,6.9,68,0.00,CLR,,0.00,0.0,WeatherDisplay:10.37,2014-03-10 09:47:00,
2014-03-10 05:52:00,40.0,30.3,29.82,WSW,240,6.6,10.4,68,0.00,CLR,,0.00,0.0,WeatherDisplay:10.37,2014-03-10 09:52:00,
2014-03-10 05:57:00,40.1,30.4,29.82,West,269,8.0,11.5,68,0.00,CLR,,0.00,0.0,WeatherDisplay:10.37,2014-03-10 09:57:00,
2014-03-10 06:02:00,40.2,30.8,29.82,SW,236,7.9,11.5,69,0.00,CLR,,0.00,0.0,WeatherDisplay:10.37,2014-03-10 10:02:00,
2014-03-10 06:07:00,40.4,31.0,29.82,SW,236,9.9,11.0,69,0.00,CLR,,0.00,0.0,WeatherDisplay:10.37,2014-03-10 10:07:00,
2014-03-10 06:12:00,40.5,31.1,29.82,WNW,288,8.4,11.5,69,0.00,CLR,,0.00,0.0,WeatherDisplay:10.37,2014-03-10 10:12:00,
2014-03-10 06:17:00,40.7,31.3,29.82,West,262,7.5,11.5,69,0.00,CLR,,0.00,0.0,WeatherDisplay:10.37,2014-03-10 10:17:00,
2014-03-10 06:22:00,40.7,31.3,29.82,SW,225,4.6,11.5,69,0.00,CLR,,0.00,0.0,WeatherDisplay:10.37,2014-03-10 10:22:00,
2014-03-10 06:27:00,40.8,31.4,29.82,SW,232,7.4,11.5,69,0.00,CLR,,0.00,0.0,WeatherDisplay:10.37,2014-03-10 10:27:00,
2014-03-10 06:32:00,40.7,31.3,29.82,West,266,5.5,8.1,69,0.00,CLR,,0.00,0.0,WeatherDisplay:10.37,2014-03-10 10:32:00,
2014-03-10 06:37:00,40.7,31.3,29.81,WSW,238,6.1,9.2,69,0.00,CLR,,0.00,0.0,WeatherDisplay:10.37,2014-03-10 10:37:00,
2014-03-10 06:42:00,40.7,31.3,29.82,SW,227,6.6,10.4,69,0.00,CLR,,0.00,0.0,WeatherDisplay:10.37,2014-03-10 10:42:00,
2014-03-10 06:47:00,40.7,31.3,29.82,SW,230,6.6,11.5,69,0.00,CLR,,0.00,0.0,WeatherDisplay:10.37,2014-03-10 10:47:00,
2014-03-10 06:52:00,40.7,31.3,29.82,WSW,242,4.8,12.0,69,0.00,CLR,,0.00,0.0,WeatherDisplay:10.37,2014-03-10 10:52:00,
2014-03-10 06:57:00,40.7,31.3,29.82,SW,223,8.2,10.4,69,0.00,CLR,,0.00,0.0,WeatherDisplay:10.37,2014-03-10 10:57:00,
2014-03-10 07:02:00,40.8,31.8,29.82,WSW,239,5.5,10.4,70,0.00,CLR,,0.00,0.0,WeatherDisplay:10.37,2014-03-10 11:02:00,
2014-03-10 07:07:00,40.8,31.8,29.82,SW,223,5.9,13.8,70,0.00,CLR,,0.00,0.0,WeatherDisplay:10.37,2014-03-10 11:07:00,
2014-03-10 07:12:00,40.8,31.8,29.81,SW,234,7.6,11.5,70,0.00,CLR,,0.00,0.0,WeatherDisplay:10.37,2014-03-10 11:12:00,
2014-03-10 07:17:00,40.9,31.9,29.81,SW,233,5.4,11.5,70,0.00,CLR,,0.00,0.0,WeatherDisplay:10.37,2014-03-10 11:17:00,
2014-03-10 07:22:00,40.9,32.2,29.81,WSW,238,8.1,11.5,71,0.00,CLR,,0.00,0.0,WeatherDisplay:10.37,2014-03-10 11:22:00,
2014-03-10 07:27:00,40.9,32.2,29.81,WSW,247,7.5,11.5,71,0.00,CLR,,0.00,0.0,WeatherDisplay:10.37,2014-03-10 11:27:00,
2014-03-10 07:32:00,40.9,32.2,29.81,WSW,240,6.4,7.0,71,0.00,CLR,,0.00,0.0,WeatherDisplay:10.37,2014-03-10 11:32:00,
2014-03-10 07:37:00,40.9,32.6,29.81,SW,230,7.1,7.1,72,0.00,CLR,,0.00,0.0,WeatherDisplay:10.37,2014-03-10 11:37:00,
2014-03-10 07:42:00,40.9,32.6,29.81,WSW,246,6.1,9.2,72,0.00,CLR,,0.00,0.0,WeatherDisplay:10.37,2014-03-10 11:42:00,
2014-03-10 07:47:00,40.9,32.6,29.81,WSW,244,4.7,10.0,72,0.00,CLR,,0.00,0.0,WeatherDisplay:10.37,2014-03-10 11:47:00,
2014-03-10 07:53:00,40.9,32.6,29.82,WSW,246,5.1,11.5,72,0.00,CLR,,0.00,0.0,WeatherDisplay:10.37,2014-03-10 11:53:00,
2014-03-10 07:58:00,40.9,32.6,29.82,WSW,245,5.6,9.2,72,0.00,SCT,,0.00,5.0,WeatherDisplay:10.37,2014-03-10 11:58:00,
2014-03-10 08:03:00,41.0,32.7,29.82,WSW,243,3.5,5.8,72,0.00,BKN,,0.00,7.0,WeatherDisplay:10.37,2014-03-10 12:03:00,
2014-03-10 08:08:00,41.0,32.7,29.82,SW,216,6.0,10.4,72,0.00,BKN,,0.00,7.0,WeatherDisplay:10.37,2014-03-10 12:08:00,
2014-03-10 08:13:00,41.0,32.7,29.82,WSW,246,5.8,9.2,72,0.00,BKN,,0.00,16.0,WeatherDisplay:10.37,2014-03-10 12:13:00,
2014-03-10 08:18:00,41.1,32.8,29.82,SW,229,4.6,6.9,72,0.00,SCT,,0.00,33.0,WeatherDisplay:10.37,2014-03-10 12:18:00,
2014-03-10 08:23:00,41.2,32.9,29.82,WSW,243,5.1,8.1,72,0.00,BKN,,0.00,28.0,WeatherDisplay:10.37,2014-03-10 12:23:00,
2014-03-10 08:28:00,41.3,33.0,29.82,WSW,238,6.7,10.4,72,0.00,BKN,,0.00,26.0,WeatherDisplay:10.37,2014-03-10 12:28:00,
2014-03-10 08:33:00,41.4,33.0,29.82,West,271,4.9,10.4,72,0.00,BKN,,0.00,26.0,WeatherDisplay:10.37,2014-03-10 12:33:00,
2014-03-10 08:38:00,41.5,32.8,29.81,WSW,250,4.9,8.1,71,0.00,BKN,,0.00,30.0,WeatherDisplay:10.37,2014-03-10 12:38:00,
2014-03-10 08:43:00,41.6,32.9,29.81,West,260,7.1,10.4,71,0.00,BKN,,0.00,32.0,WeatherDisplay:10.37,2014-03-10 12:43:00,
2014-03-10 08:48:00,41.8,33.1,29.80,WSW,242,6.0,9.2,71,0.00,BKN,,0.00,37.0,WeatherDisplay:10.37,2014-03-10 12:48:00,
2014-03-10 08:53:00,41.8,33.1,29.80,WSW,243,4.4,6.9,71,0.00,BKN,,0.00,46.0,WeatherDisplay:10.37,2014-03-10 12:53:00,
2014-03-10 08:58:00,41.9,33.2,29.79,SW,221,7.8,11.5,71,0.00,BKN,,0.00,37.0,WeatherDisplay:10.37,2014-03-10 12:58:00,
2014-03-10 09:03:00,41.9,33.2,29.79,SW,230,6.9,13.8,71,0.00,BKN,,0.00,44.0,WeatherDisplay:10.37,2014-03-10 13:03:00,
2014-03-10 09:08:00,42.0,33.3,29.80,WSW,244,6.8,12.7,71,0.00,BKN,,0.00,65.0,WeatherDisplay:10.37,2014-03-10 13:08:00,
2014-03-10 09:13:00,42.1,33.4,29.80,WSW,257,6.6,10.4,71,0.00,BKN,,0.00,72.0,WeatherDisplay:10.37,2014-03-10 13:13:00,
2014-03-10 09:18:00,42.2,33.5,29.80,WSW,251,7.4,11.5,71,0.00,BKN,,0.00,76.0,WeatherDisplay:10.37,2014-03-10 13:18:00,
2014-03-10 09:23:00,42.3,33.6,29.79,West,267,9.2,15.0,71,0.00,BKN,,0.00,65.0,WeatherDisplay:10.37,2014-03-10 13:23:00,
2014-03-10 09:28:00,42.4,33.7,29.79,WSW,239,7.4,10.4,71,0.00,BKN,,0.00,67.0,WeatherDisplay:10.37,2014-03-10 13:28:00,
2014-03-10 09:33:00,42.4,34.0,29.79,WSW,254,8.6,13.8,72,0.00,BKN,,0.00,62.0,WeatherDisplay:10.37,2014-03-10 13:33:00,
2014-03-10 09:38:00,42.4,34.0,29.79,West,260,7.5,10.0,72,0.00,BKN,,0.00,83.0,WeatherDisplay:10.37,2014-03-10 13:38:00,
2014-03-10 09:43:00,42.5,34.5,29.78,SW,233,9.0,12.0,73,0.00,SCT,,0.00,141.0,WeatherDisplay:10.37,2014-03-10 13:43:00,
2014-03-10 09:48:00,43.0,34.6,29.79,SSW,211,7.2,12.7,72,0.00,SCT,,0.00,171.0,WeatherDisplay:10.37,2014-03-10 13:48:00,
2014-03-10 09:53:00,43.1,34.7,29.79,West,259,6.9,10.4,72,0.00,BKN,,0.00,116.0,WeatherDisplay:10.37,2014-03-10 13:53:00,
2014-03-10 09:58:00,43.2,34.8,29.79,SW,224,6.8,10.4,72,0.00,SCT,,0.00,183.0,WeatherDisplay:10.37,2014-03-10 13:58:00,
2014-03-10 10:03:00,43.7,35.3,29.80,West,260,8.0,12.0,72,0.00,SCT,,0.00,199.0,WeatherDisplay:10.37,2014-03-10 14:03:00,
2014-03-10 10:08:00,43.7,34.9,29.80,SW,235,9.1,16.1,71,0.00,SCT,,0.00,193.0,WeatherDisplay:10.37,2014-03-10 14:08:00,
2014-03-10 10:13:00,43.8,35.4,29.80,SW,236,8.6,18.4,72,0.00,SCT,,0.00,190.0,WeatherDisplay:10.37,2014-03-10 14:13:00,
2014-03-10 10:18:00,44.0,35.6,29.81,WSW,252,4.2,6.9,72,0.00,SCT,,0.00,192.0,WeatherDisplay:10.37,2014-03-10 14:18:00,
2014-03-10 10:23:00,44.0,35.6,29.80,WSW,256,10.7,17.3,72,0.00,BKN,,0.00,165.0,WeatherDisplay:10.37,2014-03-10 14:23:00,
2014-03-10 10:28:00,43.9,35.5,29.80,West,263,5.5,8.1,72,0.00,BKN,,0.00,139.0,WeatherDisplay:10.37,2014-03-10 14:28:00,
2014-03-10 10:33:00,43.9,35.5,29.80,WSW,237,8.5,15.0,72,0.00,BKN,,0.00,137.0,WeatherDisplay:10.37,2014-03-10 14:33:00,
2014-03-10 10:38:00,43.9,35.5,29.79,WSW,251,10.2,16.0,72,0.00,BKN,,0.00,155.0,WeatherDisplay:10.37,2014-03-10 14:38:00,
2014-03-10 10:43:00,43.9,35.5,29.78,SW,215,10.3,12.7,72,0.00,BKN,,0.00,163.0,WeatherDisplay:10.37,2014-03-10 14:43:00,
2014-03-10 10:48:00,43.9,35.5,29.78,WSW,250,11.2,19.0,72,0.00,BKN,,0.00,144.0,WeatherDisplay:10.37,2014-03-10 14:48:00,
2014-03-10 10:53:00,43.9,35.5,29.78,WSW,248,8.7,13.8,72,0.00,BKN,,0.00,156.0,WeatherDisplay:10.37,2014-03-10 14:53:00,
2014-03-10 10:58:00,43.9,35.8,29.78,WSW,258,7.9,19.6,73,0.00,BKN,,0.00,178.0,WeatherDisplay:10.37,2014-03-10 14:58:00,
2014-03-10 11:03:00,44.3,36.2,29.78,WSW,246,9.4,18.0,73,0.00,BKN,,0.00,204.0,WeatherDisplay:10.37,2014-03-10 15:03:00,
2014-03-10 11:08:00,44.4,35.9,29.78,WSW,252,6.9,11.5,72,0.00,BKN,,0.00,209.0,WeatherDisplay:10.37,2014-03-10 15:08:00,
2014-03-10 11:13:00,44.7,36.2,29.78,WSW,257,8.2,15.0,72,0.00,BKN,,0.00,214.0,WeatherDisplay:10.37,2014-03-10 15:13:00,
2014-03-10 11:18:00,44.8,36.3,29.78,WSW,242,12.7,16.1,72,0.00,BKN,,0.00,211.0,WeatherDisplay:10.37,2014-03-10 15:18:00,
2014-03-10 11:23:00,44.9,36.1,29.77,SW,215,7.6,11.5,71,0.00,BKN,,0.00,232.0,WeatherDisplay:10.37,2014-03-10 15:23:00,
2014-03-10 11:28:00,45.1,36.3,29.77,SW,217,10.4,15.0,71,0.00,BKN,,0.00,264.0,WeatherDisplay:10.37,2014-03-10 15:28:00,
2014-03-10 11:33:00,45.5,36.6,29.78,WSW,237,10.1,19.6,71,0.00,BKN,,0.00,262.0,WeatherDisplay:10.37,2014-03-10 15:33:00,
2014-03-10 11:38:00,45.6,36.7,29.77,WSW,250,7.4,10.0,71,0.00,BKN,,0.00,260.0,WeatherDisplay:10.37,2014-03-10 15:38:00,
2014-03-10 11:43:00,45.9,36.7,29.78,West,273,9.9,15.0,70,0.00,BKN,,0.00,229.0,WeatherDisplay:10.37,2014-03-10 15:43:00,
2014-03-10 11:48:00,46.1,36.9,29.77,WSW,257,9.3,13.0,70,0.00,BKN,,0.00,253.0,WeatherDisplay:10.37,2014-03-10 15:48:00,
2014-03-10 11:53:00,46.6,37.0,29.77,SW,218,9.5,16.1,69,0.00,SCT,,0.00,320.0,WeatherDisplay:10.37,2014-03-10 15:53:00,
2014-03-10 11:58:00,47.0,37.4,29.76,West,276,7.6,11.5,69,0.00,BKN,,0.00,339.0,WeatherDisplay:10.37,2014-03-10 15:58:00,
2014-03-10 12:03:00,47.1,37.1,29.76,SW,235,7.8,12.7,68,0.00,BKN,,0.00,250.0,WeatherDisplay:10.37,2014-03-10 16:03:00,
2014-03-10 12:08:00,47.0,37.4,29.76,West,269,7.9,10.4,69,0.00,BKN,,0.00,253.0,WeatherDisplay:10.37,2014-03-10 16:08:00,
2014-03-10 12:13:00,47.4,37.0,29.76,WSW,252,8.7,10.4,67,0.00,BKN,,0.00,232.0,WeatherDisplay:10.37,2014-03-10 16:13:00,
2014-03-10 12:18:00,47.5,37.5,29.76,SW,226,7.0,9.2,68,0.00,BKN,,0.00,190.0,WeatherDisplay:10.37,2014-03-10 16:18:00,
2014-03-10 12:23:00,47.5,37.5,29.76,WSW,247,5.4,11.0,68,0.00,BKN,,0.00,135.0,WeatherDisplay:10.37,2014-03-10 16:23:00,
2014-03-10 12:28:00,48.1,37.7,29.76,WSW,242,9.6,15.0,67,0.00,BKN,,0.00,295.0,WeatherDisplay:10.37,2014-03-10 16:28:00,
2014-03-10 12:33:00,48.5,38.0,29.76,WSW,245,7.2,15.0,67,0.00,SCT,,0.00,311.0,WeatherDisplay:10.37,2014-03-10 16:33:00,
2014-03-10 12:38:00,49.2,38.3,29.76,WSW,256,8.4,12.7,66,0.00,SCT,,0.00,366.0,WeatherDisplay:10.37,2014-03-10 16:38:00,
2014-03-10 12:43:00,49.2,38.7,29.76,WSW,256,8.1,10.4,67,0.00,SCT,,0.00,373.0,WeatherDisplay:10.37,2014-03-10 16:43:00,
2014-03-10 12:48:00,49.4,38.1,29.76,WSW,252,8.9,12.7,65,0.00,BKN,,0.00,304.0,WeatherDisplay:10.37,2014-03-10 16:48:00,
2014-03-10 12:53:00,50.1,39.2,29.76,SW,225,5.5,11.5,66,0.00,BKN,,0.00,323.0,WeatherDisplay:10.37,2014-03-10 16:53:00,
2014-03-10 12:58:00,50.7,39.0,29.76,SW,224,11.0,16.1,64,0.00,BKN,,0.00,322.0,WeatherDisplay:10.37,2014-03-10 16:58:00,
2014-03-10 13:03:00,49.7,38.4,29.75,SW,221,8.7,19.6,65,0.00,BKN,,0.00,220.0,WeatherDisplay:10.37,2014-03-10 17:03:00,
2014-03-10 13:08:00,49.9,38.6,29.75,WSW,245,10.6,13.8,65,0.00,BKN,,0.00,223.0,WeatherDisplay:10.37,2014-03-10 17:08:00,
2014-03-10 13:13:00,49.9,39.0,29.75,WSW,245,7.8,8.1,66,0.00,BKN,,0.00,199.0,WeatherDisplay:10.37,2014-03-10 17:13:00,
2014-03-10 13:18:00,49.8,39.3,29.75,WSW,237,13.0,20.0,67,0.00,BKN,,0.00,165.0,WeatherDisplay:10.37,2014-03-10 17:18:00,
2014-03-10 13:23:00,49.9,39.0,29.75,WSW,241,10.0,15.0,66,0.00,BKN,,0.00,214.0,WeatherDisplay:10.37,2014-03-10 17:23:00,
2014-03-10 13:28:00,50.3,39.4,29.74,WSW,252,10.1,13.8,66,0.00,BKN,,0.00,125.0,WeatherDisplay:10.37,2014-03-10 17:28:00,
2014-03-10 13:33:00,50.6,39.3,29.74,SW,231,8.0,12.0,65,0.00,BKN,,0.00,250.0,WeatherDisplay:10.37,2014-03-10 17:33:00,
2014-03-10 13:38:00,50.6,39.3,29.74,SW,235,8.0,12.0,65,0.00,BKN,,0.00,299.0,WeatherDisplay:10.37,2014-03-10 17:38:00,
2014-03-10 13:43:00,51.1,39.3,29.74,SW,236,9.8,13.8,64,0.00,BKN,,0.00,350.0,WeatherDisplay:10.37,2014-03-10 17:43:00,
2014-03-10 13:48:00,51.1,39.4,29.73,WSW,245,12.0,15.0,64,0.00,SCT,,0.00,450.0,WeatherDisplay:10.37,2014-03-10 17:48:00,
2014-03-10 13:53:00,51.3,38.7,29.73,SSW,211,8.2,20.7,62,0.00,BKN,,0.00,318.0,WeatherDisplay:10.37,2014-03-10 17:53:00,
2014-03-10 13:58:00,51.4,39.2,29.72,WSW,243,14.0,15.0,63,0.00,BKN,,0.00,315.0,WeatherDisplay:10.37,2014-03-10 17:58:00,
2014-03-10 14:03:00,51.5,39.3,29.72,West,281,8.4,19.6,63,0.00,SCT,,0.00,394.0,WeatherDisplay:10.37,2014-03-10 18:03:00,
2014-03-10 14:08:00,51.4,39.2,29.72,WSW,252,10.1,11.0,63,0.00,BKN,,0.00,281.0,WeatherDisplay:10.37,2014-03-10 18:08:00,
2014-03-10 14:13:00,51.4,39.7,29.71,WSW,241,9.0,12.0,64,0.00,BKN,,0.00,236.0,WeatherDisplay:10.37,2014-03-10 18:13:00,
2014-03-10 14:18:00,51.2,39.0,29.71,WSW,238,8.0,15.0,63,0.00,BKN,,0.00,316.0,WeatherDisplay:10.37,2014-03-10 18:18:00,
2014-03-10 14:23:00,51.2,39.4,29.70,SSW,205,5.5,11.5,64,0.00,BKN,,0.00,338.0,WeatherDisplay:10.37,2014-03-10 18:23:00,
2014-03-10 14:28:00,51.3,39.6,29.70,SW,226,10.0,12.0,64,0.00,BKN,,0.00,301.0,WeatherDisplay:10.37,2014-03-10 18:28:00,
2014-03-10 14:33:00,51.4,39.2,29.69,SSW,212,9.2,17.3,63,0.00,BKN,,0.00,278.0,WeatherDisplay:10.37,2014-03-10 18:33:00,
2014-03-10 14:38:00,51.5,39.7,29.69,WSW,253,11.1,14.0,64,0.00,BKN,,0.00,271.0,WeatherDisplay:10.37,2014-03-10 18:38:00,
2014-03-10 14:43:00,51.7,39.5,29.68,SW,233,9.0,14.0,63,0.00,BKN,,0.00,257.0,WeatherDisplay:10.37,2014-03-10 18:43:00,
2014-03-10 14:48:00,52.7,40.0,29.68,WSW,250,8.4,23.0,62,0.00,SCT,,0.00,643.0,WeatherDisplay:10.37,2014-03-10 18:48:00,
2014-03-10 14:53:00,53.6,40.5,29.68,SW,232,13.5,16.1,61,0.00,SCT,,0.00,352.0,WeatherDisplay:10.37,2014-03-10 18:53:00,
2014-03-10 14:58:00,54.4,41.2,29.68,SW,220,9.1,12.7,61,0.00,SCT,,0.00,506.0,WeatherDisplay:10.37,2014-03-10 18:58:00,
2014-03-10 15:03:00,54.5,40.9,29.68,SW,217,11.8,19.6,60,0.00,SCT,,0.00,473.0,WeatherDisplay:10.37,2014-03-10 19:03:00,
2014-03-10 15:08:00,54.5,40.9,29.67,WSW,237,9.0,13.0,60,0.00,CLR,,0.00,643.0,WeatherDisplay:10.37,2014-03-10 19:08:00,
2014-03-10 15:13:00,55.4,41.3,29.66,SW,236,7.0,12.0,59,0.00,CLR,,0.00,656.0,WeatherDisplay:10.37,2014-03-10 19:13:00,
2014-03-10 15:18:00,56.0,41.4,29.66,West,270,11.0,15.0,58,0.00,FEW,,0.00,413.0,WeatherDisplay:10.37,2014-03-10 19:18:00,
2014-03-10 15:23:00,56.1,41.5,29.65,SW,236,10.0,15.0,58,0.00,CLR,,0.00,582.0,WeatherDisplay:10.37,2014-03-10 19:23:00,
2014-03-10 15:28:00,56.1,41.1,29.65,SW,224,10.0,13.0,57,0.00,CLR,,0.00,635.0,WeatherDisplay:10.37,2014-03-10 19:28:00,
2014-03-10 15:33:00,56.3,41.3,29.65,South,181,11.1,16.1,57,0.00,CLR,,0.00,585.0,WeatherDisplay:10.37,2014-03-10 19:33:00,
2014-03-10 15:38:00,56.4,40.9,29.64,SW,230,13.0,15.0,56,0.00,SCT,,0.00,429.0,WeatherDisplay:10.37,2014-03-10 19:38:00,
2014-03-10 15:43:00,56.4,40.9,29.64,SW,226,10.0,24.0,56,0.00,FEW,,0.00,464.0,WeatherDisplay:10.37,2014-03-10 19:43:00,
2014-03-10 15:48:00,56.4,40.4,29.64,SW,219,12.0,18.0,55,0.00,CLR,,0.00,564.0,WeatherDisplay:10.37,2014-03-10 19:48:00,
2014-03-10 15:53:00,56.3,40.3,29.64,SW,233,14.0,21.0,55,0.00,CLR,,0.00,497.0,WeatherDisplay:10.37,2014-03-10 19:53:00,
2014-03-10 15:58:00,56.9,41.4,29.63,SSW,194,9.6,15.0,56,0.00,FEW,,0.00,410.0,WeatherDisplay:10.37,2014-03-10 19:58:00,
2014-03-10 16:03:00,57.1,41.6,29.64,SW,232,7.0,13.0,56,0.00,SCT,,0.00,338.0,WeatherDisplay:10.37,2014-03-10 20:03:00,
2014-03-10 16:08:00,57.5,41.9,29.64,SSW,197,8.5,16.1,56,0.00,SCT,,0.00,376.0,WeatherDisplay:10.37,2014-03-10 20:08:00,
2014-03-10 16:13:00,57.3,40.8,29.63,SW,219,10.1,19.6,54,0.00,BKN,,0.00,234.0,WeatherDisplay:10.37,2014-03-10 20:13:00,
2014-03-10 16:18:00,57.1,41.1,29.64,SW,234,16.0,21.0,55,0.00,BKN,,0.00,141.0,WeatherDisplay:10.37,2014-03-10 20:18:00,
2014-03-10 16:23:00,57.1,41.1,29.64,WSW,239,12.7,19.6,55,0.00,BKN,,0.00,176.0,WeatherDisplay:10.37,2014-03-10 20:23:00,
2014-03-10 16:28:00,57.2,41.2,29.64,SW,234,8.6,13.8,55,0.00,SCT,,0.00,311.0,WeatherDisplay:10.37,2014-03-10 20:28:00,
2014-03-10 16:33:00,57.5,41.5,29.64,WSW,247,12.0,20.0,55,0.00,SCT,,0.00,267.0,WeatherDisplay:10.37,2014-03-10 20:33:00,
2014-03-10 16:38:00,57.4,40.9,29.64,WSW,237,10.0,23.0,54,0.00,BKN,,0.00,188.0,WeatherDisplay:10.37,2014-03-10 20:38:00,
2014-03-10 16:43:00,57.4,40.9,29.63,WSW,252,9.1,18.0,54,0.00,BKN,,0.00,137.0,WeatherDisplay:10.37,2014-03-10 20:43:00,
2014-03-10 16:48:00,57.4,41.4,29.63,SW,235,8.0,16.0,55,0.00,BKN,,0.00,137.0,WeatherDisplay:10.37,2014-03-10 20:48:00,
2014-03-10 16:53:00,57.6,41.1,29.63,West,264,6.4,10.0,54,0.00,BKN,,0.00,130.0,WeatherDisplay:10.37,2014-03-10 20:53:00,
2014-03-10 16:58:00,57.4,40.9,29.63,WSW,250,7.5,13.8,54,0.00,BKN,,0.00,134.0,WeatherDisplay:10.37,2014-03-10 20:58:00,
2014-03-10 17:03:00,57.6,40.6,29.62,WSW,248,13.3,21.9,53,0.00,BKN,,0.00,132.0,WeatherDisplay:10.37,2014-03-10 21:03:00,
2014-03-10 17:09:00,57.6,41.1,29.62,WSW,241,14.7,19.6,54,0.00,BKN,,0.00,93.0,WeatherDisplay:10.37,2014-03-10 21:09:00,
2014-03-10 17:14:00,57.4,40.4,29.63,WSW,246,10.9,16.1,53,0.00,BKN,,0.00,104.0,WeatherDisplay:10.37,2014-03-10 21:14:00,
2014-03-10 17:19:00,57.6,41.1,29.63,SW,229,13.9,19.6,54,0.00,BKN,,0.00,97.0,WeatherDisplay:10.37,2014-03-10 21:19:00,
2014-03-10 17:24:00,57.6,41.1,29.63,SW,233,14.3,23.0,54,0.00,BKN,,0.00,127.0,WeatherDisplay:10.37,2014-03-10 21:24:00,
2014-03-10 17:29:00,57.7,40.7,29.62,SW,220,9.0,11.5,53,0.00,BKN,,0.00,83.0,WeatherDisplay:10.37,2014-03-10 21:29:00,
2014-03-10 17:34:00,57.6,40.6,29.62,West,259,11.4,18.4,53,0.00,BKN,,0.00,91.0,WeatherDisplay:10.37,2014-03-10 21:34:00,
2014-03-10 17:39:00,57.6,40.6,29.62,WSW,249,10.6,15.0,53,0.00,BKN,,0.00,83.0,WeatherDisplay:10.37,2014-03-10 21:39:00,
2014-03-10 17:44:00,57.5,41.0,29.62,West,263,7.5,12.7,54,0.00,BKN,,0.00,76.0,WeatherDisplay:10.37,2014-03-10 21:44:00,
2014-03-10 17:49:00,57.6,41.1,29.62,WSW,253,7.2,12.7,54,0.00,BKN,,0.00,88.0,WeatherDisplay:10.37,2014-03-10 21:49:00,
2014-03-10 17:54:00,57.7,40.7,29.62,WSW,244,12.4,15.0,53,0.00,BKN,,0.00,76.0,WeatherDisplay:10.37,2014-03-10 21:54:00,
2014-03-10 17:59:00,57.7,40.7,29.62,SW,235,8.5,11.5,53,0.00,BKN,,0.00,79.0,WeatherDisplay:10.37,2014-03-10 21:59:00,
2014-03-10 18:04:00,57.6,41.1,29.62,WSW,244,10.8,13.8,54,0.00,BKN,,0.00,72.0,WeatherDisplay:10.37,2014-03-10 22:04:00,
2014-03-10 18:09:00,57.4,40.9,29.62,SW,221,11.8,18.4,54,0.00,BKN,,0.00,76.0,WeatherDisplay:10.37,2014-03-10 22:09:00,
2014-03-10 18:14:00,57.2,40.7,29.62,West,273,11.1,17.3,54,0.00,BKN,,0.00,77.0,WeatherDisplay:10.37,2014-03-10 22:14:00,
2014-03-10 18:19:00,57.1,40.6,29.61,WSW,251,7.7,11.5,54,0.00,BKN,,0.00,67.0,WeatherDisplay:10.37,2014-03-10 22:19:00,
2014-03-10 18:24:00,56.8,40.8,29.62,WSW,257,13.8,19.6,55,0.00,BKN,,0.00,62.0,WeatherDisplay:10.37,2014-03-10 22:24:00,
2014-03-10 18:29:00,56.7,40.7,29.62,SW,232,7.0,10.4,55,0.00,BKN,,0.00,56.0,WeatherDisplay:10.37,2014-03-10 22:29:00,
2014-03-10 18:34:00,56.4,40.9,29.62,SSW,200,9.4,16.1,56,0.00,BKN,,0.00,51.0,WeatherDisplay:10.37,2014-03-10 22:34:00,
2014-03-10 18:39:00,56.2,41.2,29.62,SW,236,14.5,20.7,57,0.00,BKN,,0.00,47.0,WeatherDisplay:10.37,2014-03-10 22:39:00,
2014-03-10 18:44:00,56.1,41.1,29.62,SW,236,12.4,15.0,57,0.00,BKN,,0.00,47.0,WeatherDisplay:10.37,2014-03-10 22:44:00,
2014-03-10 18:49:00,56.0,41.0,29.63,WSW,255,9.1,16.1,57,0.00,BKN,,0.00,40.0,WeatherDisplay:10.37,2014-03-10 22:49:00,
2014-03-10 18:54:00,55.8,41.2,29.63,WNW,286,5.3,13.0,58,0.00,BKN,,0.00,35.0,WeatherDisplay:10.37,2014-03-10 22:54:00,
2014-03-10 18:59:00,55.6,41.0,29.63,West,268,11.7,15.0,58,0.00,BKN,,0.00,28.0,WeatherDisplay:10.37,2014-03-10 22:59:00,
2014-03-10 19:04:00,55.3,41.2,29.64,WSW,250,10.3,10.4,59,0.00,BKN,,0.00,21.0,WeatherDisplay:10.37,2014-03-10 23:04:00,
2014-03-10 19:09:00,55.1,41.5,29.64,WSW,248,13.0,16.0,60,0.00,BKN,,0.00,16.0,WeatherDisplay:10.37,2014-03-10 23:09:00,
2014-03-10 19:14:00,54.9,41.3,29.64,SW,234,7.6,11.5,60,0.00,BKN,,0.00,11.0,WeatherDisplay:10.37,2014-03-10 23:14:00,
2014-03-10 19:19:00,54.7,41.1,29.64,WSW,240,7.1,15.0,60,0.00,BKN,,0.00,7.0,WeatherDisplay:10.37,2014-03-10 23:19:00,
2014-03-10 19:24:00,54.5,41.3,29.64,WSW,238,7.5,11.0,61,0.00,CLR,,0.00,0.0,WeatherDisplay:10.37,2014-03-10 23:24:00,
2014-03-10 19:29:00,54.4,41.2,29.64,WSW,238,9.2,15.0,61,0.00,CLR,,0.00,0.0,WeatherDisplay:10.37,2014-03-10 23:29:00,
2014-03-10 19:34:00,54.2,41.0,29.63,WSW,238,5.3,9.2,61,0.00,CLR,,0.00,0.0,WeatherDisplay:10.37,2014-03-10 23:34:00,
2014-03-10 19:39:00,53.9,41.2,29.63,SW,219,7.5,11.5,62,0.00,CLR,,0.00,0.0,WeatherDisplay:10.37,2014-03-10 23:39:00,
2014-03-10 19:44:00,53.8,41.5,29.64,WSW,240,10.9,19.6,63,0.00,CLR,,0.00,0.0,WeatherDisplay:10.37,2014-03-10 23:44:00,
2014-03-10 19:49:00,53.9,41.6,29.64,WSW,237,9.0,16.0,63,0.00,CLR,,0.00,0.0,WeatherDisplay:10.37,2014-03-10 23:49:00,
2014-03-10 19:54:00,53.8,41.5,29.63,WSW,252,7.2,12.7,63,0.00,CLR,,0.00,0.0,WeatherDisplay:10.37,2014-03-10 23:54:00,
2014-03-10 19:59:00,53.8,41.5,29.63,WSW,237,7.6,11.5,63,0.00,CLR,,0.00,0.0,WeatherDisplay:10.37,2014-03-10 23:59:00,
2014-03-10 20:04:00,53.7,41.4,29.64,WSW,252,8.6,9.2,63,0.00,CLR,,0.00,0.0,WeatherDisplay:10.37,2014-03-11 00:04:00,
2014-03-10 20:09:00,53.6,41.7,29.64,WSW,256,7.5,8.1,64,0.00,CLR,,0.00,0.0,WeatherDisplay:10.37,2014-03-11 00:09:00,
2014-03-10 20:14:00,53.5,41.6,29.64,SW,236,6.2,10.4,64,0.00,CLR,,0.00,0.0,WeatherDisplay:10.37,2014-03-11 00:14:00,
2014-03-10 20:19:00,53.5,41.6,29.65,West,261,6.9,11.5,64,0.00,CLR,,0.00,0.0,WeatherDisplay:10.37,2014-03-11 00:19:00,
2014-03-10 20:24:00,53.3,41.4,29.65,WSW,243,5.2,10.4,64,0.00,CLR,,0.00,0.0,WeatherDisplay:10.37,2014-03-11 00:24:00,
2014-03-10 20:29:00,53.2,41.7,29.66,WSW,254,4.0,6.9,65,0.00,CLR,,0.00,0.0,WeatherDisplay:10.37,2014-03-11 00:29:00,
2014-03-10 20:34:00,53.1,41.6,29.66,WSW,254,5.6,10.0,65,0.00,CLR,,0.00,0.0,WeatherDisplay:10.37,2014-03-11 00:34:00,
2014-03-10 20:39:00,52.9,41.8,29.66,SW,236,7.5,9.2,66,0.00,CLR,,0.00,0.0,WeatherDisplay:10.37,2014-03-11 00:39:00,
2014-03-10 20:44:00,52.8,41.7,29.66,West,267,7.2,12.7,66,0.00,CLR,,0.00,0.0,WeatherDisplay:10.37,2014-03-11 00:44:00,
2014-03-10 20:49:00,52.8,42.1,29.66,WSW,257,7.1,11.5,67,0.00,CLR,,0.00,0.0,WeatherDisplay:10.37,2014-03-11 00:49:00,
2014-03-10 20:54:00,52.7,42.0,29.66,SW,235,7.4,12.7,67,0.00,CLR,,0.00,0.0,WeatherDisplay:10.37,2014-03-11 00:54:00,
2014-03-10 20:59:00,52.6,41.9,29.67,WSW,250,6.8,10.4,67,0.00,CLR,,0.00,0.0,WeatherDisplay:10.37,2014-03-11 00:59:00,
2014-03-10 21:04:00,52.4,41.8,29.67,WSW,252,7.8,9.2,67,0.00,CLR,,0.00,0.0,WeatherDisplay:10.37,2014-03-11 01:04:00,
2014-03-10 21:09:00,52.2,42.0,29.67,SW,236,7.1,11.5,68,0.00,CLR,,0.00,0.0,WeatherDisplay:10.37,2014-03-11 01:09:00,
2014-03-10 21:14:00,52.1,41.9,29.67,WSW,248,7.0,11.5,68,0.00,CLR,,0.00,0.0,WeatherDisplay:10.37,2014-03-11 01:14:00,
2014-03-10 21:19:00,52.0,42.1,29.67,WSW,249,5.1,9.2,69,0.00,CLR,,0.00,0.0,WeatherDisplay:10.37,2014-03-11 01:19:00,
2014-03-10 21:24:00,51.8,41.9,29.67,WSW,243,8.2,10.4,69,0.00,CLR,,0.00,0.0,WeatherDisplay:10.37,2014-03-11 01:24:00,
2014-03-10 21:29:00,51.7,41.9,29.67,WSW,239,5.4,10.4,69,0.00,CLR,,0.00,0.0,WeatherDisplay:10.37,2014-03-11 01:29:00,
2014-03-10 21:34:00,51.6,42.1,29.67,West,267,4.9,6.9,70,0.00,CLR,,0.00,0.0,WeatherDisplay:10.37,2014-03-11 01:34:00,
2014-03-10 21:39:00,51.4,41.9,29.67,SW,232,8.3,10.4,70,0.00,CLR,,0.00,0.0,WeatherDisplay:10.37,2014-03-11 01:39:00,
2014-03-10 21:44:00,51.3,41.8,29.67,SW,232,5.4,10.4,70,0.00,CLR,,0.00,0.0,WeatherDisplay:10.37,2014-03-11 01:44:00,
2014-03-10 21:49:00,51.1,42.0,29.67,West,271,4.1,8.0,71,0.00,CLR,,0.00,0.0,WeatherDisplay:10.37,2014-03-11 01:49:00,
2014-03-10 21:54:00,51.0,41.9,29.67,WSW,239,7.6,12.7,71,0.00,CLR,,0.00,0.0,WeatherDisplay:10.37,2014-03-11 01:54:00,
2014-03-10 21:59:00,50.9,41.8,29.68,WSW,238,5.9,10.0,71,0.00,CLR,,0.00,0.0,WeatherDisplay:10.37,2014-03-11 01:59:00,
2014-03-10 22:04:00,50.8,42.1,29.67,SW,221,6.5,11.5,72,0.00,CLR,,0.00,0.0,WeatherDisplay:10.37,2014-03-11 02:04:00,
2014-03-10 22:09:00,50.7,42.0,29.67,SW,235,6.2,9.2,72,0.00,CLR,,0.00,0.0,WeatherDisplay:10.37,2014-03-11 02:09:00,
2014-03-10 22:14:00,50.6,41.9,29.67,WSW,242,5.7,8.1,72,0.00,CLR,,0.00,0.0,WeatherDisplay:10.37,2014-03-11 02:14:00,
2014-03-10 22:19:00,50.5,41.8,29.67,WSW,249,4.4,9.2,72,0.00,CLR,,0.00,0.0,WeatherDisplay:10.37,2014-03-11 02:19:00,
2014-03-10 22:24:00,50.4,42.1,29.68,WSW,237,7.6,13.0,73,0.00,CLR,,0.00,0.0,WeatherDisplay:10.37,2014-03-11 02:24:00,
2014-03-10 22:29:00,50.4,42.1,29.68,WSW,252,8.2,11.5,73,0.00,CLR,,0.00,0.0,WeatherDisplay:10.37,2014-03-11 02:29:00,
2014-03-10 22:34:00,50.3,42.0,29.68,West,274,5.3,6.9,73,0.00,CLR,,0.00,0.0,WeatherDisplay:10.37,2014-03-11 02:34:00,
2014-03-10 22:39:00,50.3,42.0,29.68,WSW,257,9.2,11.5,73,0.00,CLR,,0.00,0.0,WeatherDisplay:10.37,2014-03-11 02:39:00,
2014-03-10 22:44:00,50.2,41.9,29.68,SW,232,5.4,10.4,73,0.00,CLR,,0.00,0.0,WeatherDisplay:10.37,2014-03-11 02:44:00,
2014-03-10 22:49:00,50.1,41.8,29.68,West,259,6.8,11.5,73,0.00,CLR,,0.00,0.0,WeatherDisplay:10.37,2014-03-11 02:49:00,
2014-03-10 22:54:00,50.1,41.8,29.68,WSW,253,7.0,10.0,73,0.00,CLR,,0.00,0.0,WeatherDisplay:10.37,2014-03-11 02:54:00,
2014-03-10 22:59:00,50.0,41.7,29.68,WSW,242,7.9,10.4,73,0.00,CLR,,0.00,0.0,WeatherDisplay:10.37,2014-03-11 02:59:00,
2014-03-10 23:04:00,49.9,41.9,29.68,WSW,255,6.0,13.0,74,0.00,CLR,,0.00,0.0,WeatherDisplay:10.37,2014-03-11 03:04:00,
2014-03-10 23:09:00,49.8,41.8,29.68,WSW,244,5.2,8.1,74,0.00,CLR,,0.00,0.0,WeatherDisplay:10.37,2014-03-11 03:09:00,
2014-03-10 23:14:00,49.8,41.8,29.68,West,261,6.7,9.2,74,0.00,CLR,,0.00,0.0,WeatherDisplay:10.37,2014-03-11 03:14:00,
2014-03-10 23:19:00,49.7,41.7,29.69,WSW,256,7.0,12.0,74,0.00,CLR,,0.00,0.0,WeatherDisplay:10.37,2014-03-11 03:19:00,
2014-03-10 23:24:00,49.7,41.7,29.69,WSW,253,7.0,13.0,74,0.00,CLR,,0.00,0.0,WeatherDisplay:10.37,2014-03-11 03:24:00,
2014-03-10 23:29:00,49.6,41.7,29.68,West,269,4.7,6.9,74,0.00,CLR,,0.00,0.0,WeatherDisplay:10.37,2014-03-11 03:29:00,
2014-03-10 23:34:00,49.5,41.6,29.69,WSW,257,8.0,14.0,74,0.00,CLR,,0.00,0.0,WeatherDisplay:10.37,2014-03-11 03:34:00,
2014-03-10 23:39:00,49.6,41.7,29.69,West,273,7.5,11.5,74,0.00,CLR,,0.00,0.0,WeatherDisplay:10.37,2014-03-11 03:39:00,
2014-03-10 23:44:00,49.6,41.7,29.69,WSW,240,6.7,10.4,74,0.00,CLR,,0.00,0.0,WeatherDisplay:10.37,2014-03-11 03:44:00,
2014-03-10 23:49:00,49.5,41.6,29.68,WSW,255,7.0,13.0,74,0.00,CLR,,0.00,0.0,WeatherDisplay:10.37,2014-03-11 03:49:00,
2014-03-10 23:54:00,49.3,41.4,29.68,West,275,4.3,7.0,74,0.00,CLR,,0.00,0.0,WeatherDisplay:10.37,2014-03-11 03:54:00,
2014-03-10 23:59:00,49.2,41.3,29.68,WSW,251,6.0,9.0,74,0.00,CLR,,0.00,0.0,WeatherDisplay:10.37,2014-03-11 03:59:00,